Fairbanks Eiels, AK

9:22 PM AKST on December 05, 2019 (GMT -0900)
Eielson Air Force Base

Weather History for PAEI - October, 2019

Change the Weather History Date:

Saturday, October 19, 2019

  Actual Average Record
Temperature  
Mean Temperature 28 °F -  
Max Temperature 34 °F 26 °F 56 °F (2013)
Min Temperature 24 °F 11 °F -18 °F (1992)
Degree Days  
Heating Degree Days 36    
Moisture  
Dew Point 25 °F    
Average Humidity 86    
Maximum Humidity 93    
Minimum Humidity 79    
Precipitation  
Precipitation 0.00 in - - ()
Snow  
Snow 0.00 in - - ()
Snow Depth 1.00 in    
Sea Level Pressure  
Sea Level Pressure 29.55 in    
Wind  
Wind Speed 1 mph (SSE)    
Max Wind Speed 7 mph    
Max Gust Speed -    
Visibility 10 miles    
Events      
Averages and records for this station are not official NWS values.
T = Trace of Precipitation, MM = Missing Value Source: NWS Daily Summary

Daily Weather History Graph

Daily Weather History Graph

Search for Another Location

Airport or City:

Astronomy

Oct. 19, 2019 Rise Set
Actual Time 8:52 AM AKDT 6:12 PM AKDT
Civil Twilight 8:02 AM AKDT 7:02 PM AKDT
Nautical Twilight 7:05 AM AKDT 7:59 PM AKDT
Astronomical Twilight 6:08 AM AKDT 8:55 PM AKDT
Moon 8:25 PM AKDT (10/19) 4:39 PM AKDT (10/19)
Length of Visible Light 11h 00m
Length of Day
9h 19m
Waning Gibbous, 68% of the Moon is Illuminated
Oct 19
Waning Gibbous
Oct 21
Last Quarter
Oct 27
New
Nov 4
First Quarter
Nov 12
Full

Hourly Weather History & Observations

Time (AKDT) Temp. Windchill Dew Point Humidity Pressure Visibility Wind Dir Wind Speed Gust Speed Precip Events Conditions
12:11 AM 28.4 °F - 24.8 °F 86% 29.46 in 10.0 mi Calm Calm - N/A   Overcast
12:56 AM 26.2 °F 22.1 °F 23.4 °F 89% 29.47 in 10.0 mi SSE 3.5 mph - N/A   Overcast
1:56 AM 26.2 °F - 23.4 °F 89% 29.48 in 10.0 mi Calm Calm - N/A   Overcast
2:56 AM 26.1 °F - 23.2 °F 89% 29.49 in 10.0 mi Calm Calm - N/A   Overcast
3:11 AM 26.6 °F 22.6 °F 23.0 °F 86% 29.49 in 10.0 mi SSE 3.5 mph - N/A   Overcast
3:56 AM 25.5 °F 21.3 °F 22.6 °F 89% 29.50 in 10.0 mi South 3.5 mph - N/A   Overcast
4:41 AM 24.8 °F 20.5 °F 23.0 °F 93% 29.51 in 10.0 mi SSE 3.5 mph - N/A   Overcast
4:56 AM 25.3 °F 19.7 °F 22.5 °F 89% 29.51 in 10.0 mi SSE 4.6 mph - N/A   Overcast
5:56 AM 25.3 °F 21.1 °F 22.5 °F 89% 29.52 in 10.0 mi South 3.5 mph - N/A   Overcast
6:56 AM 25.7 °F - 22.6 °F 88% 29.53 in 10.0 mi Calm Calm - N/A   Overcast
7:56 AM 26.8 °F - 23.7 °F 88% 29.54 in 10.0 mi Calm Calm - N/A   Overcast
8:56 AM 27.3 °F 19.9 °F 23.9 °F 87% 29.53 in 10.0 mi NNE 6.9 mph - N/A   Overcast
9:56 AM 29.3 °F - 25.3 °F 85% 29.54 in 10.0 mi Calm Calm - N/A   Mostly Cloudy
10:56 AM 30.2 °F - 26.6 °F 86% 29.52 in 10.0 mi Calm Calm - N/A   Overcast
12:56 PM 30.7 °F - 26.2 °F 83% 29.56 in 10.0 mi Calm Calm - N/A   Overcast
1:41 PM 32.0 °F - 26.6 °F 80% 29.56 in 10.0 mi Calm Calm - N/A   Overcast
1:56 PM 32.0 °F - 26.8 °F 81% 29.56 in 10.0 mi Calm Calm - N/A   Overcast
2:56 PM 32.4 °F - 27.0 °F 80% 29.57 in 10.0 mi Calm Calm - N/A   Overcast
3:56 PM 33.4 °F - 27.7 °F 79% 29.57 in 10.0 mi Calm Calm - N/A   Overcast
4:56 PM 32.9 °F - 27.1 °F 79% 29.58 in 10.0 mi Calm Calm - N/A   Overcast
5:56 PM 32.2 °F 28.9 °F 27.3 °F 82% 29.59 in 10.0 mi SSW 3.5 mph - N/A   Overcast
6:56 PM 30.6 °F - 26.6 °F 85% 29.60 in 10.0 mi Calm Calm - N/A   Overcast
7:56 PM 29.3 °F - 25.9 °F 87% 29.60 in 10.0 mi Calm Calm - N/A   Overcast
8:56 PM 29.8 °F - 26.4 °F 87% 29.61 in 10.0 mi Calm Calm - N/A   Overcast
9:56 PM 29.7 °F - 26.6 °F 88% 29.62 in 10.0 mi Calm Calm - N/A   Overcast
10:41 PM 30.2 °F - 26.6 °F 86% 29.63 in 10.0 mi Calm Calm - N/A   Overcast
10:56 PM 29.7 °F - 26.8 °F 89% 29.63 in 10.0 mi Calm Calm - N/A   Overcast
11:41 PM 30.2 °F - 26.6 °F 86% 29.61 in 10.0 mi Calm Calm - N/A   Overcast
11:56 PM 30.2 °F - 26.6 °F 86% 29.61 in 10.0 mi Calm Calm - N/A   Overcast